Hourly Data Report for October 03, 2019

All times are specified in Local Standard Time (LST). Add 1 hour to adjust for Daylight Saving Time where and when it is observed.

ABBOTSFORD A
BRITISH COLUMBIA
Current Station Operator: NAVCAN

49°01'31.000" N
122°21'36.000" W
59.10 m
1100031
71108
YXX

Download Data

Hourly Data (October 2019)
Hourly Data Report for October 3, 2019
TIME Temp Definition
°C
Dew Point Definition
°C
Rel Hum Definition
%
Wind Dir Definition
10's deg

Wind Spd Definition
km/h
Visibility Definition
km
Stn Press Definition
kPa
Hmdx Definition


Wind Chill Definition


Weather Definition


00:00 10.2 8.6 90 3 19 16.1 100.75     Rain
01:00 10.1 8.4 89 3 12 16.1 100.75     Rain
02:00 9.8 8.3 91 13 5 24.1 100.73     LegendNANA
03:00 10.3 8.1 86 5 13 24.1 100.70     LegendNANA
04:00 10.3 8.1 86 5 12 24.1 100.68     Cloudy
05:00 10.3 8.0 85 10 7 24.1 100.70     LegendNANA
06:00 9.9 8.0 88 1 9 40.2 100.70     LegendNANA
07:00 10.1 8.4 89   0 32.2 100.72     Mostly Cloudy
08:00
09:00 10.0 8.8 92 6 11 24.1 100.82     Rain
10:00 10.7 8.9 89 15 9 6.4 100.83     Rain
11:00 11.0 9.4 90 3 3 16.1 100.85     Rain
12:00 12.6 9.3 80 12 15 12.9 100.81     Rain
13:00 12.8 8.4 75 12 9 16.1 100.80     Mostly Cloudy
14:00 13.1 7.6 69 5 4 24.1 100.78     LegendNANA
15:00 11.7 9.4 86 9 16 24.1 100.78     LegendNANA
16:00 12.2 8.2 76 7 12 24.1 100.77     Mostly Cloudy
17:00 11.7 8.5 80 4 8 24.1 100.75     LegendNANA
18:00 11.0 8.4 84 30 7 12.9 100.77     LegendNANA
19:00 10.1 8.5 90 5 11 24.1 100.83     Mostly Cloudy
20:00 9.3 8.2 92 1 9 24.1 100.86     LegendNANA
21:00 9.4 8.3 93 3 7 24.1 100.91     LegendNANA
22:00 9.7 8.0 89 5 10 24.1 100.93     Mostly Cloudy
23:00 9.3 8.1 92 3 8 24.1 100.91     LegendNANA

Notes on Data Quality.

Legend

  • E = Estimated
  • M = Missing
  • NA = Not Available
Date modified: